{"data":{"norad_id":68795,"epoch":"2026-09-20T03:24:33.666048Z","epoch_age_seconds":90474,"freshness":"FRESH","line1":"1 68795U 26088D   26263.14205632  .00008285  00000+0  50333-3 0  9990","line2":"2 68795  97.5190  50.6328 0015697 111.6885 248.6018 15.10631775 22627","mean_motion":15.10631775,"eccentricity":0.0015697,"inclination_deg":97.519,"raan_deg":50.6328,"arg_perigee_deg":111.6885,"mean_anomaly_deg":248.6018,"bstar":0.00050333,"rev_number":2262,"period_min":95.32435526851,"perigee_km":523.42165515089,"apogee_km":545.12247216534,"semimajor_km":6912.4090636581,"source":"CELESTRAK","updated_at":"2026-09-20T09:00:24.463232Z"}}